Weather History for State College, PA

Change the Weather History Date:

Tuesday, January 1, 2013

  Actual Average Record
Temperature  
Mean Temperature 28 °F -  
Max Temperature 33 °F 36 °F 64 °F (1966)
Min Temperature 22 °F 19 °F -3 °F (1963)
Degree Days  
Heating Degree Days 38    
Moisture  
Dew Point 20 °F    
Average Humidity 68    
Maximum Humidity 80    
Minimum Humidity 54    
Precipitation  
Precipitation 0.00 in - - ()
Sea Level Pressure  
Sea Level Pressure 29.94 in    
Wind  
Wind Speed 11 mph (WNW)    
Max Wind Speed 20 mph    
Max Gust Speed 28 mph    
Visibility 10 miles    
Events      
Averages and records for this station are not official NWS values.
T = Trace of Precipitation, MM = Missing Value Source: NWS Daily Summary

Daily Weather History Graph

Daily Weather History Graph

Search for Another Location

Airport:

Trip Planner

Search our weather history database for the weather conditions in past years. The results will help you decide how hot, cold, wet, or windy it might be!

Date:

Astronomy

Jan. 01, 2013 Rise Set
Actual Time 7:35 AM EST 4:54 PM EST
Civil Twilight 7:04 AM EST 5:25 PM EST
Nautical Twilight 6:30 AM EST 5:59 PM EST
Astronomical Twilight 5:57 AM EST 6:33 PM EST
Moon 9:25 PM EST (1/1) 9:45 AM EST (1/1)
Length of Visible Light 10h 20m
Length of Day
9h 18m
Waning Gibbous, 83% of the Moon is Illuminated
Jan 1
Waning Gibbous
Jan 4
Last Quarter
Jan 11
New
Jan 18
First Quarter
Jan 26
Full

Hourly Weather History & Observations

Time (EST) Temp. Windchill Dew Point Humidity Pressure Visibility Wind Dir Wind Speed Gust Speed Precip Events Conditions
12:15 AM 33.1 °F 23.9 °F 26.2 °F 76% 29.91 in 10.0 mi West 12.7 mph 23.0 mph N/A   Overcast
12:35 AM 33.1 °F 21.5 °F 26.1 °F 75% 29.91 in 10.0 mi West 19.6 mph 26.5 mph N/A   Overcast
12:55 AM 32.9 °F 22.8 °F 26.1 °F 76% 29.91 in 10.0 mi West 15.0 mph 20.7 mph N/A   Overcast
1:15 AM 32.9 °F 24.7 °F 25.7 °F 75% 29.90 in 10.0 mi West 10.4 mph 18.4 mph N/A   Overcast
1:35 AM 32.9 °F 22.0 °F 25.7 °F 75% 29.90 in 10.0 mi West 17.3 mph 27.6 mph N/A   Overcast
2:15 AM 32.5 °F 22.3 °F 26.1 °F 77% 29.92 in 10.0 mi WSW 15.0 mph 25.3 mph N/A   Overcast
2:35 AM 32.5 °F 23.2 °F 26.1 °F 77% 29.93 in 10.0 mi West 12.7 mph 21.9 mph N/A   Overcast
2:55 AM 32.4 °F 22.1 °F 26.1 °F 78% 29.92 in 10.0 mi West 15.0 mph 19.6 mph N/A   Overcast
3:15 AM 32.4 °F 23.5 °F 26.1 °F 78% 29.91 in 10.0 mi West 11.5 mph 24.2 mph N/A   Overcast
3:35 AM 32.2 °F 25.0 °F 25.9 °F 78% 29.91 in 10.0 mi West 8.1 mph 18.4 mph N/A   Overcast
3:55 AM 32.4 °F 26.0 °F 25.7 °F 76% 29.91 in 10.0 mi WSW 6.9 mph 18.4 mph N/A   Overcast
4:15 AM 32.2 °F 24.4 °F 25.7 °F 77% 29.90 in 10.0 mi West 9.2 mph - N/A   Overcast
4:35 AM 32.2 °F 23.8 °F 25.7 °F 77% 29.90 in 10.0 mi West 10.4 mph - N/A   Overcast
5:53 AM 32.0 °F 22.5 °F 26.6 °F 80% 29.91 in 10.0 mi West 12.7 mph - N/A   Overcast
7:58 AM 32.0 °F 23.6 °F 24.8 °F 75% 29.91 in 10.0 mi West 10.4 mph - N/A   Overcast
8:53 AM 32.0 °F 24.2 °F 24.8 °F 75% 29.92 in 10.0 mi West 9.2 mph - N/A   Overcast
9:53 AM 32.0 °F 23.0 °F 24.8 °F 75% 29.92 in 10.0 mi West 11.5 mph - N/A   Overcast
10:53 AM 32.0 °F 24.8 °F 24.8 °F 75% 29.93 in 10.0 mi WNW 8.1 mph 18.4 mph N/A   Overcast
11:53 AM 32.0 °F 23.0 °F 24.8 °F 75% 29.92 in 7.0 mi WNW 11.5 mph - N/A   Overcast
12:53 PM 32.0 °F 23.0 °F 23.0 °F 69% 29.87 in 7.0 mi NW 11.5 mph - N/A   Overcast
1:53 PM 30.2 °F 20.8 °F 23.0 °F 75% 29.89 in 7.0 mi WNW 11.5 mph - N/A   Overcast
3:53 PM 30.2 °F 19.8 °F 17.6 °F 60% 29.92 in 10.0 mi WNW 13.8 mph - N/A   Overcast
4:53 PM 28.4 °F 18.5 °F 19.4 °F 69% 29.95 in 10.0 mi West 11.5 mph - N/A   Overcast
5:53 PM 28.4 °F 21.2 °F 15.8 °F 59% 29.95 in 10.0 mi West 6.9 mph - N/A   Mostly Cloudy
6:53 PM 28.4 °F 22.2 °F 14.0 °F 55% 29.97 in 10.0 mi WNW 5.8 mph - N/A   Overcast
7:53 PM 26.6 °F 20.0 °F 14.0 °F 59% 29.97 in 10.0 mi West 5.8 mph - N/A   Overcast
8:15 PM 26.6 °F 20.0 °F 13.3 °F 57% 29.97 in 10.0 mi WNW 5.8 mph - N/A   Overcast
8:35 PM 26.1 °F 20.5 °F 13.1 °F 58% 29.97 in 10.0 mi WNW 4.6 mph - N/A   Overcast
8:53 PM 24.8 °F 17.9 °F 12.2 °F 59% 29.98 in 10.0 mi NW 5.8 mph - N/A   Overcast
8:55 PM 25.7 °F 20.1 °F 12.9 °F 58% 29.98 in 10.0 mi NW 4.6 mph - N/A   Overcast
9:15 PM 25.7 °F 18.0 °F 12.6 °F 58% 29.98 in 10.0 mi NW 6.9 mph - N/A   Overcast
9:35 PM 25.5 °F 15.5 °F 10.9 °F 54% 29.99 in 10.0 mi NW 10.4 mph - N/A   Overcast
9:55 PM 24.8 °F 17.9 °F 11.3 °F 57% 29.99 in 10.0 mi WNW 5.8 mph - N/A   Mostly Cloudy
10:15 PM 24.8 °F 19.1 °F 11.1 °F 56% 29.98 in 10.0 mi NNW 4.6 mph - N/A   Mostly Cloudy
10:35 PM 24.4 °F 20.1 °F 10.9 °F 57% 29.99 in 10.0 mi NW 3.5 mph - N/A   Overcast
10:55 PM 24.3 °F 19.9 °F 10.4 °F 56% 29.99 in 10.0 mi NW 3.5 mph - N/A   Overcast
11:15 PM 23.5 °F 17.6 °F 10.4 °F 57% 30.00 in 10.0 mi WNW 4.6 mph - N/A   Overcast
11:35 PM 22.6 °F 15.3 °F 10.8 °F 60% 30.00 in 10.0 mi West 5.8 mph - N/A   Mostly Cloudy
11:55 PM 22.6 °F 14.3 °F 10.2 °F 59% 29.99 in 10.0 mi West 6.9 mph - N/A   Mostly Cloudy